User: anonymous   Login
Location: *
(37.5724°S, 58.0067°E)
Time: 03:21:06
(UTC+00:00)
Language:

CZ-2C R/B - Orbit

View from above orbital plane
View from above orbital plane
View from above satellite
View from above satellite

Ground track
Ground track

The orbit data is extracted from the following two-line orbital elements,

1 37766U 11039B   20329.67775891  .00000106  00000-0  28433-4 0  9990
2 37766  98.3578 186.0633 0044518 238.9374 120.7456 14.66510412498934
Epoch (UTC): 24 November 2020 16:15:58
Eccentricity: 0.0044518
inclination: 98.3578°
perigee height: 641 km
apogee height: 703 km
right ascension of ascending node: 186.0633°
argument of perigee: 238.9374°
revolutions per day: 14.66510412
mean anomaly at epoch: 120.7456°
orbit number at epoch: 49893

The dashed part of the orbit path shows where the satellite is in the earth's shadow,  

DLR